EagleEye

operational
NORAD ID: 60508 Int'l Des: 2024-149 Owner: CREO Country: PL
LEOCIRCULARRETROGRADESSO

About EagleEye

Description loading...

Live Position

Loading 3D Globe...

Upcoming Passes

Altitude History

Altitude vs Time

uPlot chart will show altitude changes over time

Two-Line Element Set

1 60508U 24149AS 26061.50647086 .00068228 00000-0 98906-3 0 9991
2 60508 97.3794 150.2478 0002726 279.2404 80.8542 15.55627267 86278
Epoch: Mar 2, 2026 • Age: 24 hours

Current Status

Altitude 406.1 km
Velocity 7.67 km/s
Sub-Earth Point -16.63°S, 14.33°W
Launch Date Aug 16, 2024
Age 1.5 years
Type other

Technical Details

Classification Payload
Mass 55.00 kg
Dry Mass 55.00 kg
Total Mass 55.00 kg
Length 0.90 m
Diameter 0.50 m
Span 1.50 m
Shape Box + 2 pan
Manufacturer CREO
Bus Type HyperSat
Phase Status In Orbit
Owner/State CREO/PL

Large Constellations

Loading constellations...